User: anonymous   Login
Location: Asheville, NC
(35.6000°N, 82.5500°W)
Time: 06:46:45
(UTC-05:00)
Language:

LO-87 - Orbit

View from above orbital plane
View from above orbital plane
View from above satellite
View from above satellite

Ground track
Ground track

The orbit data is extracted from the following two-line orbital elements,

1 41557U 16033B   18018.21367586  .00001164  00000-0  45426-4 0  9998
2 41557  97.4476 102.6632 0013089 334.0151  26.0430 15.27919812 91256
Epoch (UTC): 18 January 2018 05:07:41
Eccentricity: 0.0013089
inclination: 97.4476°
perigee height: 473 km
apogee height: 491 km
right ascension of ascending node: 102.6632°
argument of perigee: 334.0151°
revolutions per day: 15.27919812
mean anomaly at epoch: 26.0430°
orbit number at epoch: 9125

The dashed part of the orbit path shows where the satellite is in the earth's shadow,  

DLR